Terug naar catalogus

STARLINK-36940

ActiefCommunicatieSSO
NORAD 68027·PAYLOAD·🇺🇸 United States

Gelanceerd Mar 1, 2026 vanaf Vandenberg Space Force Base

Loading…

Volgende Passages (komende 24 uur)

TLE

VersSource: CelesTrak SupGP

Epoch: Sep 14, 2026, 23:23 UTC

1 68027C 26040N   26257.97479167 -.00050789  00000+0 -15770-2 0  2576
2 68027  97.2851 205.4610 0001764  85.7174 340.5855 15.33457167    18

Volg STARLINK-36940 in realtime met AllMySat

Download on the App Store